Hourly Weather Bururi

Today, 30 October, Friday

Time Temperature Precipitation Wind Pressure Humidity
00:00 +18°C° 0.2 mm 1 mps 616 mmHg 84%
01:00 +18°C° 0.2 mm 1 mps 615 mmHg 85%
02:00 +18°C° 0.2 mm 1 mps 615 mmHg 86%
03:00 +18°C° 0.6 mm 1 mps 615 mmHg 85%
04:00 +17°C° 0.6 mm 2 mps 616 mmHg 84%
05:00 +17°C° 0.6 mm 2 mps 616 mmHg 83%
06:00 +17°C° 0.6 mm 2 mps 616 mmHg 84%
07:00 +18°C° 0.6 mm 2 mps 617 mmHg 84%
08:00 +18°C° 0.6 mm 2 mps 618 mmHg 84%
09:00 +19°C° 0.5 mm 2 mps 618 mmHg 80%
10:00 +20°C° 0.5 mm 2 mps 618 mmHg 77%
11:00 +21°C° 0.5 mm 3 mps 618 mmHg 73%
12:00 +21°C° 0.4 mm 2 mps 617 mmHg 72%
13:00 +21°C° 0.4 mm 2 mps 616 mmHg 71%
14:00 +23°C° 0.4 mm 2 mps 616 mmHg 70%
15:00 +21°C° 0.4 mm 2 mps 616 mmHg 72%
16:00 +22°C° 0.4 mm 1 mps 615 mmHg 74%
17:00 +21°C° 0.4 mm 1 mps 615 mmHg 76%
18:00 +20°C° 0.1 mm 1 mps 615 mmHg 78%
19:00 +19°C° 0.1 mm 1 mps 616 mmHg 80%
20:00 +18°C° 0.1 mm 1 mps 616 mmHg 81%
21:00 +18°C° 0 mm 1 mps 616 mmHg 81%
22:00 +18°C° 0 mm 1 mps 616 mmHg 81%
23:00 +18°C° 0 mm 1 mps 616 mmHg 81%

Tomorrow, 31 October, Saturday

Time Temperature Precipitation Wind Pressure Humidity
00:00 +18°C° 0 mm 1 mps 615 mmHg 80%
01:00 +18°C° 0 mm 1 mps 615 mmHg 79%
02:00 +18°C° 0 mm 1 mps 615 mmHg 78%
03:00 +18°C° 0 mm 1 mps 615 mmHg 77%
04:00 +16°C° 0 mm 1 mps 615 mmHg 77%
05:00 +16°C° 0 mm 1 mps 615 mmHg 76%
06:00 +18°C° 0.2 mm 1 mps 616 mmHg 76%
07:00 +19°C° 0.2 mm 1 mps 617 mmHg 76%
08:00 +20°C° 0.2 mm 1 mps 618 mmHg 76%
09:00 +20°C° 0.5 mm 2 mps 618 mmHg 74%
10:00 +21°C° 0.5 mm 2 mps 617 mmHg 73%
11:00 +21°C° 0.5 mm 2 mps 617 mmHg 72%
12:00 +21°C° 0.9 mm 2 mps 616 mmHg 72%
13:00 +21°C° 0.9 mm 2 mps 616 mmHg 72%
14:00 +21°C° 0.9 mm 2 mps 615 mmHg 73%
15:00 +21°C° 0.7 mm 2 mps 615 mmHg 75%
16:00 +22°C° 0.7 mm 1 mps 615 mmHg 76%
17:00 +22°C° 0.7 mm 1 mps 614 mmHg 78%
18:00 +20°C° 0.1 mm 1 mps 615 mmHg 80%
19:00 +19°C° 0.1 mm 1 mps 615 mmHg 82%
20:00 +18°C° 0.1 mm 1 mps 615 mmHg 83%
21:00 +18°C° 0 mm 1 mps 615 mmHg 82%
22:00 +19°C° 0 mm 1 mps 615 mmHg 80%
23:00 +19°C° 0 mm 1 mps 615 mmHg 78%

Day after tomorrow, 1 November, Sunday

Time Temperature Precipitation Wind Pressure Humidity
00:00 +19°C° 0 mm 1 mps 615 mmHg 78%
01:00 +19°C° 0 mm 1 mps 615 mmHg 77%
02:00 +19°C° 0 mm 1 mps 615 mmHg 76%
03:00 +19°C° 0 mm 1 mps 615 mmHg 76%
04:00 +19°C° 0 mm 1 mps 615 mmHg 76%
05:00 +19°C° 0 mm 1 mps 615 mmHg 75%
06:00 +19°C° 0.1 mm 1 mps 616 mmHg 75%
07:00 +20°C° 0.1 mm 1 mps 617 mmHg 74%
08:00 +21°C° 0.1 mm 1 mps 617 mmHg 73%
09:00 +20°C° 0.8 mm 2 mps 617 mmHg 75%
10:00 +20°C° 0.8 mm 2 mps 617 mmHg 76%
11:00 +20°C° 0.8 mm 2 mps 617 mmHg 78%
12:00 +20°C° 1.1 mm 2 mps 616 mmHg 79%
13:00 +20°C° 1.1 mm 2 mps 615 mmHg 80%
14:00 +20°C° 1.1 mm 2 mps 615 mmHg 81%
15:00 +19°C° 1.1 mm 2 mps 615 mmHg 84%
16:00 +18°C° 1.1 mm 2 mps 614 mmHg 87%
17:00 +18°C° 1.1 mm 2 mps 614 mmHg 89%
18:00 +17°C° 0.4 mm 2 mps 615 mmHg 90%
19:00 +17°C° 0.4 mm 2 mps 615 mmHg 90%
20:00 +17°C° 0.4 mm 2 mps 615 mmHg 91%
21:00 +17°C° 0 mm 2 mps 615 mmHg 89%
22:00 +18°C° 0 mm 1 mps 615 mmHg 87%
23:00 +18°C° 0 mm 1 mps 615 mmHg 86%

2 November, Monday

Time Temperature Precipitation Wind Pressure Humidity
00:00 +18°C° 0 mm 1 mps 615 mmHg 85%
01:00 +18°C° 0 mm 1 mps 615 mmHg 84%
02:00 +16°C° 0 mm 0 mps 615 mmHg 83%
03:00 +15°C° 0 mm 0 mps 615 mmHg 83%
04:00 +15°C° 0 mm 0 mps 615 mmHg 83%
05:00 +16°C° 0 mm 1 mps 615 mmHg 83%
06:00 +18°C° 0 mm 1 mps 616 mmHg 80%
07:00 +19°C° 0 mm 1 mps 617 mmHg 78%
08:00 +20°C° 0 mm 1 mps 617 mmHg 76%
09:00 +21°C° 0.3 mm 1 mps 617 mmHg 73%
10:00 +22°C° 0.3 mm 1 mps 618 mmHg 70%
11:00 +24°C° 0.3 mm 2 mps 618 mmHg 67%
12:00 +23°C° 1.2 mm 2 mps 617 mmHg 69%
13:00 +23°C° 1.2 mm 1 mps 616 mmHg 71%
14:00 +23°C° 1.2 mm 1 mps 615 mmHg 74%
15:00 +22°C° 1.2 mm 1 mps 615 mmHg 77%
16:00 +21°C° 1.2 mm 1 mps 615 mmHg 81%
17:00 +19°C° 1.2 mm 0 mps 614 mmHg 84%
18:00 +20°C° 0.8 mm 1 mps 615 mmHg 85%
19:00 +18°C° 0.8 mm 2 mps 615 mmHg 86%
20:00 +18°C° 0.8 mm 3 mps 616 mmHg 86%
21:00 +18°C° 0.1 mm 3 mps 616 mmHg 84%
22:00 +18°C° 0.1 mm 2 mps 616 mmHg 82%
23:00 +17°C° 0.1 mm 2 mps 616 mmHg 80%

3 November, Tuesday

Time Temperature Precipitation Wind Pressure Humidity
00:00 +17°C° 0 mm 2 mps 616 mmHg 80%
01:00 +17°C° 0 mm 2 mps 615 mmHg 79%
02:00 +17°C° 0 mm 2 mps 615 mmHg 78%
03:00 +17°C° 0.1 mm 2 mps 615 mmHg 80%
04:00 +17°C° 0.1 mm 2 mps 616 mmHg 81%
05:00 +17°C° 0.1 mm 2 mps 616 mmHg 82%
06:00 +18°C° 0.1 mm 2 mps 616 mmHg 80%
07:00 +20°C° 0.1 mm 1 mps 617 mmHg 79%
08:00 +21°C° 0.1 mm 1 mps 618 mmHg 77%
09:00 +21°C° 0.9 mm 1 mps 618 mmHg 76%
10:00 +21°C° 0.9 mm 2 mps 618 mmHg 74%
11:00 +23°C° 0.9 mm 2 mps 618 mmHg 73%
12:00 +23°C° 1.5 mm 2 mps 617 mmHg 74%
13:00 +23°C° 1.5 mm 2 mps 616 mmHg 75%
14:00 +23°C° 1.5 mm 2 mps 615 mmHg 77%
15:00 +22°C° 1 mm 1 mps 615 mmHg 79%
16:00 +22°C° 1 mm 1 mps 615 mmHg 81%
17:00 +21°C° 1 mm 1 mps 615 mmHg 83%
18:00 +20°C° 0.1 mm 1 mps 615 mmHg 84%
19:00 +20°C° 0.1 mm 1 mps 615 mmHg 85%
20:00 +19°C° 0.1 mm 1 mps 615 mmHg 86%
21:00 +19°C° 0 mm 1 mps 615 mmHg 85%
22:00 +18°C° 0 mm 1 mps 616 mmHg 83%
23:00 +18°C° 0 mm 1 mps 616 mmHg 82%

4 November, Wednesday

Time Temperature Precipitation Wind Pressure Humidity
00:00 +18°C° 0 mm 1 mps 615 mmHg 82%
01:00 +18°C° 0 mm 1 mps 615 mmHg 81%
02:00 +18°C° 0 mm 1 mps 615 mmHg 81%
03:00 +18°C° 0 mm 1 mps 615 mmHg 80%
04:00 +18°C° 0 mm 1 mps 615 mmHg 80%
05:00 +18°C° 0 mm 1 mps 615 mmHg 80%
06:00 +19°C° 0.4 mm 1 mps 616 mmHg 80%
07:00 +19°C° 0.4 mm 1 mps 617 mmHg 80%
08:00 +20°C° 0.4 mm 1 mps 617 mmHg 81%
09:00 +20°C° 0.8 mm 2 mps 617 mmHg 77%
10:00 +21°C° 0.8 mm 2 mps 617 mmHg 74%
11:00 +23°C° 0.8 mm 2 mps 617 mmHg 70%
12:00 +23°C° 0.5 mm 2 mps 617 mmHg 69%
13:00 +24°C° 0.5 mm 2 mps 616 mmHg 68%
14:00 +24°C° 0.5 mm 2 mps 615 mmHg 67%
15:00 +23°C° 0.2 mm 2 mps 615 mmHg 70%
16:00 +23°C° 0.2 mm 1 mps 615 mmHg 73%
17:00 +22°C° 0.2 mm 1 mps 614 mmHg 76%
18:00 +21°C° 0 mm 1 mps 614 mmHg 77%
19:00 +20°C° 0 mm 1 mps 614 mmHg 78%
20:00 +18°C° 0 mm 2 mps 614 mmHg 79%
21:00 +18°C° 0 mm 2 mps 615 mmHg 77%
22:00 +17°C° 0 mm 2 mps 615 mmHg 76%
23:00 +18°C° 0 mm 1 mps 615 mmHg 74%
Show more

We Need Your Consent

Meteoprog and our Service Providers may store and access personal data such as cookies, device identifiers or other similar technologies on your device and process such data to personalise content and ads, as well as provide social media features and to analyse the traffic.

  • Store and/or access information on your device

    Cookies, device identifiers or other information can be stored or accessed on your device for the purposes indicated above.

  • Personalised ads and content, ad and content measurement, audience insights, and products development

    Ads and content can be personalised based on a profile. More data can be added to better personalise ads and content. Ad and content performance can be measured. Insights about the audience who saw the ads and content can be derived. Such data can be used to develop or improve user’s experience, systems and software.

By clicking ‘I Agree’ you will allow the use of indicated cookies, device identifiers, web beacons or other similar technologies. Your settings can be changed in the browser on your device.

For certain purposes, legitimate interests may be relied on, rather than consent. You can read more about this in our Privacy and Cookie Policy.